Retour au catalogue

CZ-6A DEB

ActifPO
NORAD 60784·DEBRIS·🇨🇳 China

Lancé Aug 6, 2024 depuis Taiyuan Satellite Launch Center

Loading…

Prochains Passages (prochaines 24 heures)

TLE

FraisSource: Space-Track

Époque: Sep 14, 2026, 06:31 UTC

1 60784U 24140FK  26257.27176533  .00000766  00000-0  24590-3 0  9994
2 60784  89.0025 262.8628 0069553  73.9994 286.8853 14.37119893107345

Suivez CZ-6A DEB en temps réel avec AllMySat

Download on the App Store